Home   Weather   Cozumel   Past weeks

Flag for Mexico Past Weather in Cozumel, Quintana Roo, Mexico — Yesterday and Last 2 Weeks

Now
82 °F

Scattered clouds.


Feels Like: 88 °F
Forecast: 77 / 84 °F
Wind: 15 mph from Southeast

Location: Cozumel Civ / Mil

Current Time: Jan 21, 2017 at 12:56:57 pm

Latest Report: Jan 21, 2017 at 11:41 am


Visibility: 8 mi

Pressure: 29.90 "Hg

Humidity: 74%

Dew Point: 73 °F

Location of CozumelLocation

Past Weather in Cozumel — Graph

°F

Cozumel Temperature Yesterday

Maximum temperature yesterday: 84 °F (at 2:40 pm)
Minimum temperature yesterday: 66 °F (at 7:46 am)
Average temperature yesterday: 76 °F

High & Low Weather Summary for the Past Weeks

 TemperatureHumidityPressure
High86 °F (Jan 7, 1:45 pm)100% (Jan 7, 2:07 am)30.42 "Hg (Jan 7, 2:07 am)
Low66 °F (Jan 20, 7:46 am)50% (Jan 8, 8:43 pm)29.86 "Hg (Jan 6, 4:43 pm)
Average75 °F76%30.09 "Hg
* Reported Jan 6 10:40 am — Jan 21 10:45 am, Cozumel, Weather by CustomWeather, © 2017

Note: Actual official high and low records may vary slightly from our data, if they occured in-between our weather recording intervals... More about our weather records

Advertising

Cozumel Weather History for the Previous 24 Hours

Scroll right to see more
 ConditionsComfort  
Time TempWeatherWind HumidityBarometerVisibility
10:45 am
Sat, Jan 21
84 °FScattered clouds.12 mph70%29.91 "Hg8 mi
9:40 am81 °FScattered clouds.10 mph79%29.90 "Hg8 mi
8:43 am79 °FScattered clouds.8 mph79%29.89 "Hg8 mi
7:42 am77 °FPassing clouds.9 mph83%29.87 "Hg8 mi
6:47 am77 °FPassing clouds.7 mph83%29.89 "Hg7 mi
5:42 am75 °FPassing clouds.6 mph83%29.86 "Hg7 mi
4:46 am75 °FPassing clouds.6 mph89%29.86 "Hg7 mi
3:44 am75 °FPassing clouds.7 mph89%29.88 "Hg7 mi
2:44 am77 °FPassing clouds.9 mph83%29.88 "Hg7 mi
1:41 am77 °FPassing clouds.7 mph83%29.90 "Hg7 mi
12:43 am77 °FPassing clouds.13 mph83%29.93 "Hg7 mi
11:42 pm
Fri, Jan 20
77 °FPassing clouds.5 mph83%29.92 "Hg7 mi
10:43 pm77 °FPassing clouds.8 mph83%29.92 "Hg7 mi
9:41 pm77 °FPassing clouds.6 mph83%29.93 "Hg7 mi
8:41 pm77 °FPassing clouds.No wind83%29.91 "Hg8 mi
7:42 pm77 °FPassing clouds.8 mph83%29.88 "Hg8 mi
6:45 pm77 °FScattered clouds.3 mph83%29.88 "Hg8 mi
5:40 pm81 °FScattered clouds.5 mph79%29.86 "Hg8 mi
4:50 pm82 °FScattered clouds.9 mph70%29.86 "Hg8 mi
3:45 pm82 °FPartly sunny.10 mph70%29.87 "Hg8 mi
2:40 pm84 °FPartly sunny.14 mph62%29.87 "Hg8 mi
1:42 pm82 °FPartly sunny.8 mph66%29.89 "Hg8 mi
12:48 pm82 °FPartly sunny.9 mph62%29.94 "Hg8 mi
Weather by CustomWeather, © 2017

See weather overviewHow to use our weather pages